www.pogodaiklimat.ru

Погода и климат >> Архив погоды >> Россия >> Чукотка >> Чаун


ПОГОДА в Чауне

  • Прогноз погоды в Чауне
  • Монитор погоды в Чауне

АРХИВ ПОГОДЫ в Чауне

Время (UTC), дата Ветер
(напр.,м/с)
 
Видим.   Явления Облачность Т
(С)
Тd
(С)
f
(%)
Тe
(С)
Тes
(С)
Комфортность P
(гПа)
Po
(гПа)
Тmin
(С)
Tmax
(С)
R
(мм)
R24
(мм)
S
(см)
12 12.06 З 2
{4}
50 км 6/0
[Ac trans Ci fib]
+11.4 +8.1 80 +10 +10 1010.7 1010.1
15 12.06 З 2
{6}
50 км 6/0
[Ac trans]
+8.8 +3.8 71 +7 +7 1011.2 1010.6
18 12.06 ЮВ 2
{4}
50 км 8/0
[Ac trans]
+12.2 +7.3 72 +11 +13 1011.8 1011.2
21 12.06 ЮВ 3
{4}
50 км 6/0
[Ac trans]
+17.5 +7.4 51 +18 +21 1012.0 1011.4 +7.7
00 13.06 ЮВ 3
{5}
50 км 6/0
[Ac trans]
+25.3 +4.6 26 +25 +30 комфорт 1010.9 1010.3
03 13.06 С 2
{5}
50 км 8/0
[Ac trans]
+23.9 +5.9 31 +24 +29 комфорт 1010.1 1009.5
06 13.06 С 3
{4}
50 км 6/0
[Ac trans]
+24.9 +3.6 25 +24 +26 комфорт 1009.2 1008.6
09 13.06 В 3
{4}
50 км 8/0
[Ac trans]
+19.6 +9.7 53 +21 +21 комфорт 1008.9 1008.3 +26.9
12 13.06 ЮВ 3
{4}
50 км 6/0
[Ac trans]
+14.4 +10.2 76 +14 +14 1008.9 1008.3
15 13.06 З 2
{5}
50 км 6/0
[Ac trans]
+9.3 +5.1 75 +8 +8 1009.5 1008.9
18 13.06 ЮВ 3
{5}
50 км 4/0
[Ac trans]
+13.5 +8.5 72 +12 +14 1010.2 1009.6
21 13.06 Ю 3
{5}
50 км 3/0
[Ac trans]
+20.6 +8.4 45 +22 +27 комфорт 1010.8 1010.2 +9.0
00 14.06 З 1
{4}
50 км 3/0
[Ac lent]
+25.5 +0.4 19 +24 +33 комфорт 1011.1 1010.5
03 14.06 С 3
{5}
50 км 3/0
[Ac lent]
+25.6 +2.9 23 +24 +30 комфорт 1011.1 1010.5
06 14.06 СВ 3
{5}
50 км 3/0
[Ac lent]
+25.7 +4.5 26 +25 +27 комфорт 1011.0 1010.4
09 14.06 В 3
{5}
50 км 3/0
[Ac lent]
+21.5 +9.4 46 +23 +23 комфорт 1011.7 1011.1 +26.9
12 14.06 В 5
{5}
50 км 3/0
[Ac lent]
+15.3 +9.8 70 +14 +14 1012.8 1012.2
15 14.06 ЮВ 5
{7}
50 км 3/0
[Ac lent]
+13.6 +8.2 70 +12 +12 1013.6 1013.0
18 14.06 ЮВ 5
{7}
50 км 3/0
[Ac lent]
+15.3 +8.9 66 +14 +15 1014.8 1014.2
21 14.06 ЮВ 4
{6}
50 км ясно +21.5 +8.1 42 +23 +27 комфорт 1015.6 1015.0 +12.5
00 15.06 З 3
{6}
50 км 1/1 600 м
[Cu hum]
+24.3 +12.3 47 +26 +34 жарко 1015.8 1015.2
03 15.06 С 4
{6}
50 км 1/1 600 м
[Cu hum]
+19.1 +11.4 61 +20 +26 1015.9 1015.3
06 15.06 С 4
{6}
50 км 1/1 600 м
[Cu hum]
+18.4 +10.4 60 +19 +21 1015.5 1014.9
09 15.06 СВ 3
{5}
50 км ясно +20.8 +11.0 53 +23 +24 комфорт 1015.8 1015.2 +26.8
12 15.06 СВ 3
{4}
50 км ясно +15.8 +11.1 74 +15 +15 1016.1 1015.5
15 15.06 В 4
{6}
50 км ясно +13.6 +9.0 74 +12 +12 1016.0 1015.4
18 15.06 ЮВ 4
{5}
50 км ясно +12.9 +9.2 78 +11 +13 1016.0 1015.4
21 15.06 Ю 2
{7}
50 км ясно +20.7 +9.3 48 +23 +30 комфорт 1015.6 1015.0 +12.2
00 16.06 З 2
{5}
50 км ясно +26.1 +7.8 31 +26 +37 жарко 1015.0 1014.4
03 16.06 С 3
{5}
50 км ясно +23.4 +11.8 48 +26 +34 жарко 1014.0 1013.4
06 16.06 СЗ 8-10
{12}
50 км 6/0
[Ac lent]
+17.8 +9.2 57 +17 +17 1013.8 1013.2
09 16.06 С 4
{13}
50 км 4/0
[Ac lent]
+12.8 +6.1 64 +11 +11 1014.1 1013.5 +27.4
12 16.06 З 4
{6}
50 км ясно +9.5 +7.4 87 +7 +7 1014.1 1013.5
15 16.06 З 4
{6}
50 км ясно +8.7 +7.0 89 +6 +6 1014.1 1013.5
18 16.06 С 1
{5}
50 км ясно +12.0 +6.5 69 +12 +15 1015.0 1014.4
21 16.06 З 2
{4}
50 км ясно +16.6 +9.9 65 +17 +24 1015.2 1014.6 +8.0
00 17.06 З 2
{4}
50 км 8/1 600 м
[Cu hum Ci fib]
+18.5 +8.6 52 +19 +28 1014.9 1014.3
03 17.06 СЗ 3
{5}
50 км 8/3 600 м
[Cu hum Ci fib]
+18.4 +9.0 54 +19 +23 1014.2 1013.6
06 17.06 С 4
{5}
50 км 6/1 600 м
[Cu hum Ci fib]
+19.3 +7.8 47 +20 +22 1013.6 1013.0
09 17.06 С 3
{6}
50 км 6/1 600 м
[Cu hum Ci fib]
+15.2 +11.1 77 +15 +15 1013.6 1013.0 +21.2
12 17.06 С 1
{5}
50 км 6/0
[Ci fib]
+10.7 +9.5 92 +10 +10 1014.0 1013.4
15 17.06 СВ 3
{6}
50 км 6/0
[Ci fib]
+11.0 +7.7 80 +9 +9 1013.8 1013.2
18 17.06 СВ 3
{5}
50 км 4/0
[Ci fib]
+15.2 +9.4 68 +15 +16 1014.0 1013.4
21 17.06 В 2
{4}
50 км 3/0
[Ci fib]
+22.0 +9.7 46 +24 +30 комфорт 1013.4 1012.8 +10.2
00 18.06 С 3
{6}
50 км 4/0
[Ci fib]
+19.6 +10.7 56 +21 +29 комфорт 1012.8 1012.2
03 18.06 С 4
{6}
50 км 4/0
[Ac lent]
+20.6 +9.8 50 +22 +27 комфорт 1011.7 1011.1
06 18.06 С 4
{6}
50 км 4/0
[Ac lent]
+21.0 +5.8 37 +22 +24 комфорт 1011.0 1010.4
09 18.06 С 6
{10}
50 км 4/0
[Ac lent]
+12.6 +5.8 63 +10 +10 1011.6 1011.0 +22.2
12 18.06 З 4
{9}
50 км 6/0
[Ac lent Ci fib]
+9.8 +5.6 75 +7 +7 1011.8 1011.2
15 18.06 СЗ 1
{7}
50 км 6/0
[Ac lent]
+9.7 +7.8 88 +9 +9 1011.6 1011.0
18 18.06 СЗ 2
{6}
50 км 6/0
[Ac lent]
+12.1 +8.2 77 +11 +12 1012.3 1011.7
21 18.06 СЗ 5
{8}
50 км 10/0
[Ac und]
+12.4 +6.2 66 +10 +11 1012.5 1011.9 +9.5
00 19.06 СЗ 5
{8}
20 км 10/0
[Ac und]
+12.6 +6.1 65 +11 +12 1013.1 1012.5
03 19.06 СЗ 4
{6}
20 км 9/0
[Ac trans]
+15.9 +5.8 51 +15 +18 1012.9 1012.3
06 19.06 СЗ 3
{6}
20 км 8/0
[Ac trans]
+12.9 +7.1 68 +12 +13 1013.1 1012.5
09 19.06 СЗ 4
{6}
50 км 9/0
[Ac lent Ci]
+9.4 +6.7 83 +7 +7 1013.8 1013.2 +16.5

 

Местоположение метеостанции Чаун (Чукотка, Россия): широта 68.88 долгота 170.70 высота над уровнем моря 5 м.

В архиве по умолчанию представлена погода в Чауне за последнюю неделю. Архивные данные за месяц целиком и за предыдущие месяцы, начиная с января 2011 года, Вы можете получить, выбрав интересующий диапазон дат из раскрывающегося списка и нажав кнопку "Ввод!".


*Определитесь, кто Вы:
робот инопланетянин человек

Внимание! Время в таблицах - всемирное. Для получения местного времени необходимо прибавить поправку, которая равна 12 ч.

Смотрите также архив погоды в соседних городах и на ближайших метеорологических станциях:

Погода на 21 км (Чукотка, Россия) (84 км)
Погода в Комсомольской (Чукотка, Россия) (89 км)
Погода в Певеке (Чукотка, Россия) (93 км)
Погода в Майской (Чукотка, Россия) (117 км)
Погода в Валькаркае (Чукотка, Россия) (134 км)
Погода в Паляваам-Глубокой (Чукотка, Россия) (137 км)
Погода на Айон Острове (Чукотка, Россия) (160 км)
Погода в Раучуе (Чукотка, Россия) (180 км)
Погода в Билибино (Чукотка, Россия) (198 км)
Погода в Илирнее (Чукотка, Россия) (215 км)

Пояснения к столбцам:

Ветер - указаны скорость ветра в м/с - средняя за 10 мин, порывы в срок и между сроками (в фигурных скобках) и направление, откуда дует ветер: С - северный, СВ - северо-восточный, В - восточный, ЮВ - юго-восточный, Ю - южный, ЮЗ - юго-западный, З - западный, СЗ - северо-западный.
Видимость - горизонтальная дальность видимости в метрах или километрах. При видимости от 1 до 10 км при отсутствии осадков обычно наблюдается дымка, при ухудшении видимости до 1 км и менее - туман. В сухую погоду видимость может ухудшаться дымом, пылью или мглою.
Явления - указаны атмосферные явления, наблюдавшиеся в срок или в последний час перед сроком; фигурными скобками обозначены явления, наблюдавшиеся между сроками (за 1-3 часа до срока); квадратными скобками обозначены град или гололедные отложения с указанием их диаметра в мм.
Облачность - указаны через наклонную черту общая и нижняя облачность в баллах и высота нижней границы облаков в метрах; квадратными скобками обозначены формы облаков: Ci - перистые, Cs - перисто-слоистые, Cc - перисто-кучевые, Ac - высококучевые, As - высокослоистые, Sc - слоисто-кучевые, Ns - слоисто-дождевые, Cu - кучевые, Cb - кучево-дождевые. Подробнее классификацию облаков см. в Атласе облаков (PDF).
T - Температура воздуха - температура, измеренная на высоте 2 м над землей.
Td - Температура точки росы - температура, при понижении до которой содержащийся в воздухе водяной пар достигнет насыщения.
f - Относительная влажность воздуха - влажноcть воздуха, измеренная на высоте 2 м над землей.
Te - Эффективная температура - температура, которую ощущает одетый по сезону человек в тени. Характеристика душности погоды. При расчете учитывается влияние влажности воздуха и скорости ветра на теплоощущения человека.
Tes - Эффективная температура на солнце - температура, которую ощущает человек, с поправкой на солнечный нагрев. Характеристика знойности погоды. Зависит от высоты солнца над горизонтом, облачности и скорости ветра. Ночью, в пасмурную погоду, а также при ветре 12 м/с и более поправка равна нулю.
P - Атмосферное давление - приведенное к уровню моря атмосферное давление.
Po - Атмосферное давление - измеренное на уровне метеостанции атмосферное давление.
Tmin - Минимальная температура - минимум температуры воздуха на высоте 2 м над землей.
Tmax - Максимальная температура - максимум температуры воздуха на высоте 2 м над землей.
R - Количество осадков - Количество выпавших осадков за период времени, мм. При наведении курсора мыши на число - период времени, за который выпало указанное количество осадков.
R24 - Количество осадков - Количество выпавших осадков за 24 часа, мм.
S - Снежный покров - Высота снежного покрова, см. При наведении курсора мыши на число - состояние снежного покрова и степень покрытия местности в баллах.